Preview of NWS' New Version of Forecast
This preview is not operational and should not be used for support decisions.

Regional Weather Roundup (RWR)

Issued by National Weather Service (NWS)

                            
000
ASUS43 KTOP 242008
RWRKS 

WEATHER ROUNDUP FOR KANSAS
NATIONAL WEATHER SERVICE GOODLAND KS
300 PM CDT SAT AUG 24 2019

NOTE:  "FAIR" INDICATES FEW OR NO CLOUDS BELOW 12,000 FEET WITH NO
SIGNIFICANT WEATHER AND/OR OBSTRUCTIONS TO VISIBILITY.

KSZ001>006-013>018-027>032-041>047-242100-
NORTHWEST KANSAS
  
CITY           SKY/WX    TMP DP  RH WIND       PRES   REMARKS
GOODLAND       PTSUNNY   74  64  71 SE12      30.00S                  
HAYS           CLOUDY    77  69  76 SE15      29.85S                  
HILL CITY      CLOUDY    78  67  68 SE14      29.98F                  
RUSSELL        PTSUNNY   78  68  71 SE14      29.97S                  
$$

KSZ061>065-074>080-084>089-242100-
SOUTHWEST KANSAS
  
CITY           SKY/WX    TMP DP  RH WIND       PRES   REMARKS
DODGE CITY     PTSUNNY   83  65  54 SE17G25   29.96F                  
ELKHART        SUNNY     89  64  42 S20       29.95F                  
GARDEN CITY    MOSUNNY   84  64  50 S16G29    29.94F                  
GREAT BEND     CLOUDY    75  70  83 SE15      29.98F                  
LIBERAL        SUNNY     82  65  56 SE17G25   29.95F                  
PRATT          CLOUDY    81  67  62 SE13      29.97F                  
$$

KSZ066>073-081>083-090>101-242100-
SOUTHEAST KANSAS
  
CITY           SKY/WX    TMP DP  RH WIND       PRES   REMARKS
CHANUTE        CLOUDY    78  69  73 E8        30.00F                  
COFFEYVILLE    CLOUDY    82  72  71 E6        29.95F                  
HUTCHINSON     CLOUDY    78  68  71 SE8       29.98F                  
MEDICINE LODGE   N/A     81  69  67 S10G22    29.95F                  
NEWTON         CLOUDY    77  70  78 SE12      29.99F                  
PARSONS        PTSUNNY   81  74  79 MISG      29.99F                  
WICHITA INTL   PTSUNNY   82  70  66 SE12      29.96F                  
WICHITA JABRA  PTSUNNY   80  70  71 SE10G18   29.97F                  
WICHITA MCCONL PTSUNNY   82  67  61 E13       29.97                   
WINFIELD       PTSUNNY   80  72  76 S7        29.98F                  
$$

KSZ007>012-019>026-033>040-048>060-102>105-242100-
NORTHEAST KANSAS
  
CITY           SKY/WX    TMP DP  RH WIND       PRES   REMARKS
CONCORDIA      LGT RAIN  72  69  90 E10       30.03R                  
EMPORIA        CLOUDY    75  70  84 E10       30.00F                  
LAWRENCE       CLOUDY    77  65  66 E12G20    30.03F                  
MANHATTAN      CLOUDY    75  67  76 E8        30.01S                  
MARYSVILLE     LGT RAIN  70  64  83 SE10      30.06R                  
OLATHE IND     CLOUDY    73  65  75 E10       30.06F                  
OLATHE EXE     CLOUDY    71  64  78 E12G17    30.06F                  
SALINA         CLOUDY    78  68  71 SE13      29.99F                  
TOPEKA BILLARD CLOUDY    72  65  78 E12       30.03F                  
TOPEKA FORBES  CLOUDY    73  66  78 E7        30.04S                  
$$